VIR226 KMCO-EGPH

Flight info

Callsign VIR226
Flight time N/A
Altitude 35000
Route FATHE4 VIYAP Q87 JROSS DCT ELLDE Q97 YEASO/N0486F370 Q97 KALDA DCT ZJAAY Q167 RIFLE DCT YAHOO DCT KANNI N257B NICSO/M085F390 DCT 48N050W 50N040W 52N030W 53N020W DCT DOGAL DCT BEXET/N0487F390 DCT NIBOG DCT MAC/N0481F250 N562 TRN DCT TLA
Aircraft A35K/H-SDE2E3GHIJ3J4J5LM1ORWXY/LB1D1

Departure

Time 2026-04-25 02:04
Airport Orlando International Airport (KMCO)

Arrival

Time N/A
Airport Edinburgh Airport (EGPH)
Time Latitude Longitude Altitude Speed Heading
2026-04-25 01:35 28.42606 -81.30153 100 ft 0 kts 60°
2026-04-25 01:52 28.42601 -81.30165 100 ft 4 kts 60°
2026-04-25 01:52 28.42587 -81.30192 103 ft 4 kts 60°
2026-04-25 01:52 28.42574 -81.30219 102 ft 4 kts 60°
2026-04-25 01:52 28.42563 -81.30241 100 ft 2 kts 60°
2026-04-25 01:53 28.42551 -81.30267 102 ft 4 kts 68°
2026-04-25 01:53 28.42544 -81.30296 101 ft 4 kts 89°
2026-04-25 01:53 28.42548 -81.30321 100 ft 3 kts 119°
2026-04-25 01:53 28.42561 -81.30347 103 ft 4 kts 119°
2026-04-25 01:54 28.42564 -81.30353 100 ft 0 kts 119°
2026-04-25 01:56 28.42560 -81.30345 100 ft 0 kts 118°
2026-04-25 01:57 28.42558 -81.30341 82 ft 1 kts 118°
2026-04-25 01:57 28.42545 -81.30314 104 ft 7 kts 118°
2026-04-25 01:57 28.42513 -81.30249 102 ft 11 kts 120°
2026-04-25 01:58 28.42474 -81.30170 100 ft 12 kts 119°
2026-04-25 01:58 28.42434 -81.30125 103 ft 6 kts 172°
2026-04-25 01:58 28.42389 -81.30125 103 ft 7 kts 163°
2026-04-25 01:58 28.42364 -81.30082 103 ft 8 kts 104°
2026-04-25 01:59 28.42362 -81.30015 102 ft 9 kts 89°
2026-04-25 01:59 28.42362 -81.29935 100 ft 11 kts 90°
2026-04-25 01:59 28.42366 -81.29847 102 ft 11 kts 77°
2026-04-25 01:59 28.42426 -81.29795 101 ft 12 kts
2026-04-25 02:00 28.42516 -81.29796 103 ft 14 kts 359°
2026-04-25 02:00 28.42625 -81.29797 102 ft 17 kts 359°
2026-04-25 02:00 28.42757 -81.29798 103 ft 20 kts 359°
2026-04-25 02:00 28.42909 -81.29800 101 ft 23 kts 359°
2026-04-25 02:01 28.43075 -81.29801 101 ft 24 kts 359°
2026-04-25 02:01 28.43246 -81.29803 100 ft 25 kts 360°
2026-04-25 02:01 28.43362 -81.29804 102 ft 14 kts 359°
2026-04-25 02:01 28.43465 -81.29805 103 ft 16 kts 359°
2026-04-25 02:02 28.43541 -81.29785 104 ft 10 kts 50°
2026-04-25 02:02 28.43553 -81.29704 104 ft 11 kts 89°
2026-04-25 02:02 28.43548 -81.29620 104 ft 10 kts 112°
2026-04-25 02:02 28.43493 -81.29588 105 ft 9 kts 174°
2026-04-25 02:03 28.43479 -81.29587 106 ft 5 kts 178°
2026-04-25 02:03 28.43192 -81.29583 104 ft 79 kts 179°
2026-04-25 02:03 28.42409 -81.29575 102 ft 144 kts 179°
2026-04-25 02:03 28.41249 -81.29578 412 ft 173 kts 177°
2026-04-25 02:04 28.40060 -81.29570 1266 ft 169 kts 174°
2026-04-25 02:04 28.38839 -81.29478 1915 ft 182 kts 169°
2026-04-25 02:04 28.37604 -81.29088 2540 ft 186 kts 150°
2026-04-25 02:04 28.36704 -81.28019 2987 ft 198 kts 118°
2026-04-25 02:05 28.36422 -81.26449 3331 ft 216 kts 88°
2026-04-25 02:05 28.36660 -81.24677 3588 ft 239 kts 74°
2026-04-25 02:05 28.37352 -81.22869 3865 ft 260 kts 59°
2026-04-25 02:05 28.38607 -81.21349 4361 ft 269 kts 31°
2026-04-25 02:06 28.40366 -81.20669 5078 ft 268 kts
2026-04-25 02:06 28.42228 -81.20518 5827 ft 269 kts 358°
2026-04-25 02:06 28.44092 -81.20634 6596 ft 272 kts 353°
2026-04-25 02:06 28.45981 -81.20864 7385 ft 273 kts 352°
2026-04-25 02:07 28.47876 -81.21119 8205 ft 276 kts 352°
2026-04-25 02:07 28.49800 -81.21361 9021 ft 279 kts 353°
2026-04-25 02:07 28.51739 -81.21573 9828 ft 282 kts 353°
2026-04-25 02:07 28.53724 -81.21760 10435 ft 292 kts 354°
2026-04-25 02:08 28.55820 -81.21939 10754 ft 311 kts 354°
2026-04-25 02:08 28.58053 -81.22117 11083 ft 331 kts 355°
2026-04-25 02:08 28.60417 -81.22298 11400 ft 348 kts 355°
2026-04-25 02:08 28.62864 -81.22480 11707 ft 364 kts 355°
2026-04-25 02:09 28.65435 -81.22673 12165 ft 374 kts 355°
2026-04-25 02:09 28.68047 -81.22871 12811 ft 378 kts 354°
2026-04-25 02:09 28.70682 -81.23085 13483 ft 381 kts 355°
2026-04-25 02:09 28.73346 -81.23297 14102 ft 385 kts 355°
2026-04-25 02:10 28.76023 -81.23504 14690 ft 387 kts 355°
2026-04-25 02:10 28.78727 -81.23710 15268 ft 390 kts 355°
2026-04-25 02:10 28.81446 -81.23919 15845 ft 394 kts 354°
2026-04-25 02:10 28.84191 -81.24132 16421 ft 397 kts 354°
2026-04-25 02:11 28.86961 -81.24350 17007 ft 400 kts 354°
2026-04-25 02:11 28.89748 -81.24569 17604 ft 403 kts 354°
2026-04-25 02:11 28.92559 -81.24791 18194 ft 406 kts 354°
2026-04-25 02:11 28.95391 -81.25014 18706 ft 409 kts 354°
2026-04-25 02:12 28.98212 -81.25237 19217 ft 413 kts 354°
2026-04-25 02:12 29.01087 -81.25465 19742 ft 416 kts 354°
2026-04-25 02:12 29.03982 -81.25694 20260 ft 419 kts 354°
2026-04-25 02:12 29.06906 -81.25926 20765 ft 423 kts 354°
2026-04-25 02:13 29.09855 -81.26160 21291 ft 426 kts 354°
2026-04-25 02:13 29.12827 -81.26394 21804 ft 430 kts 354°
2026-04-25 02:13 29.15823 -81.26630 22335 ft 433 kts 354°
2026-04-25 02:13 29.18847 -81.26870 22837 ft 437 kts 354°
2026-04-25 02:14 29.21898 -81.27113 23370 ft 441 kts 354°
2026-04-25 02:14 29.24976 -81.27359 23829 ft 444 kts 354°
2026-04-25 02:14 29.28040 -81.27601 24280 ft 448 kts 354°
2026-04-25 02:14 29.31173 -81.27850 24727 ft 452 kts 354°
2026-04-25 02:15 29.34330 -81.28101 25225 ft 455 kts 354°
2026-04-25 02:15 29.37498 -81.28352 25700 ft 458 kts 354°
2026-04-25 02:15 29.40698 -81.28607 26170 ft 461 kts 354°
2026-04-25 02:15 29.43915 -81.28863 26641 ft 465 kts 354°
2026-04-25 02:16 29.47152 -81.29122 27109 ft 468 kts 354°
2026-04-25 02:16 29.50372 -81.29379 27552 ft 471 kts 354°
2026-04-25 02:16 29.53652 -81.29641 27960 ft 474 kts 354°
2026-04-25 02:16 29.56954 -81.29903 28378 ft 477 kts 354°
2026-04-25 02:17 29.60283 -81.30168 28751 ft 481 kts 354°
2026-04-25 02:17 29.63639 -81.30436 29170 ft 484 kts 354°
2026-04-25 02:17 29.67012 -81.30705 29568 ft 487 kts 354°
2026-04-25 02:17 29.70399 -81.30974 30034 ft 488 kts 354°
2026-04-25 02:18 29.73777 -81.31243 30552 ft 486 kts 354°
2026-04-25 02:18 29.77143 -81.31511 31113 ft 483 kts 353°
2026-04-25 02:18 29.80446 -81.31774 31669 ft 479 kts 353°
2026-04-25 02:18 29.83771 -81.32040 32188 ft 477 kts 353°
2026-04-25 02:19 29.87094 -81.32307 32568 ft 478 kts 353°
2026-04-25 02:19 29.90419 -81.32575 32975 ft 477 kts 353°
2026-04-25 02:19 29.93684 -81.32838 33432 ft 475 kts 353°
2026-04-25 02:19 29.96978 -81.33104 33897 ft 473 kts 353°
2026-04-25 02:20 30.00258 -81.33368 34287 ft 471 kts 353°
2026-04-25 02:20 30.03531 -81.33631 34609 ft 470 kts 353°
2026-04-25 02:20 30.06794 -81.33895 34894 ft 470 kts 353°
2026-04-25 02:21 30.13365 -81.34428 34996 ft 476 kts 354°
2026-04-25 02:21 30.19990 -81.34964 34987 ft 477 kts 354°
2026-04-25 02:22 30.26582 -81.35498 34979 ft 478 kts 354°
2026-04-25 02:22 30.33229 -81.36034 34981 ft 478 kts 354°
2026-04-25 02:23 30.39869 -81.36571 34980 ft 478 kts 354°
2026-04-25 02:23 30.46508 -81.37109 34980 ft 478 kts 354°